GW7224 Weather Reports


Display with metric or nautical units.
time (UTC)temp
F
wind
direction
speed
MPH
gust
MPH
rain 1hr
in
rain 24hr
in
rain mn
in
humidity
%
barometer
mb
20260906022431 77 79 0.0 0.0 0.00 0.00 0.00 87 1012.2
20260906021926 78 79 0.0 1.0 0.00 0.00 0.00 87 1012.4
20260906021426 78 79 1.0 1.0 0.00 0.00 0.00 86 1011.9
20260906020926 78 80 1.0 0.0 0.00 0.00 0.00 84 1012.0
20260906020421 78 80 0.0 1.0 0.00 0.00 0.00 85 1011.9
20260906015915 78 81 0.0 1.0 0.00 0.00 0.00 87 1011.7
20260906015415 77 76 0.0 0.0 0.00 0.00 0.00 88 1011.8
20260906014914 77 76 0.0 1.0 0.00 0.00 0.00 88 1011.9
20260906014414 78 88 1.0 2.0 0.00 0.00 0.00 88 1012.0
20260906013911 78 87 1.0 2.0 0.00 0.00 0.00 86 1012.1
20260906013406 79 89 0.0 0.0 0.00 0.00 0.00 85 1012.0
20260906012902 79 89 0.0 0.0 0.00 0.00 0.00 84 1011.9
20260906012356 79 89 0.0 0.0 0.00 0.00 0.00 83 1011.7
20260906011856 80 89 0.0 0.0 0.00 0.00 0.00 84 1011.5
20260906011351 80 89 0.0 0.0 0.00 0.00 0.00 83 1011.6
20260906010846 79 89 0.0 1.0 0.00 0.00 0.00 85 1011.4
20260906010342 79 88 0.0 0.0 0.00 0.00 0.00 86 1011.3
20260906005838 80 87 0.0 0.0 0.00 0.00 0.00 84 1011.3
20260906005337 80 88 1.0 1.0 0.00 0.00 0.00 83 1011.2
20260906004836 81 210 1.0 1.0 0.00 0.00 0.00 81 1011.3
20260906004336 82 210 1.0 1.0 0.00 0.00 0.00 79 1011.5
20260906003831 82 211 1.0 1.0 0.00 0.00 0.00 77 1011.1
20260906003327 82 245 1.0 1.0 0.00 0.00 0.00 77 1011.4
20260906002822 82 246 0.0 0.0 0.00 0.00 0.00 75 1011.2
20260906002321 82 246 0.0 0.0 0.00 0.00 0.00 77 1011.5
20260906001817 83 246 0.0 0.0 0.00 0.00 0.00 76 1011.5
20260906001312 83 246 0.0 0.0 0.00 0.00 0.00 75 1011.6
20260906000807 84 246 0.0 0.0 0.00 0.00 0.00 74 1011.6
20260906000303 84 247 1.0 2.0 0.00 0.00 0.00 72 1011.6
20260905235756 85 3 2.0 1.0 0.00 0.00 0.00 66 1011.7
20260905235256 85 5 0.0 0.0 0.00 0.00 0.00 67 1011.7
20260905234752 86 5 0.0 0.0 0.00 0.00 0.00 68 1011.6
20260905234247 86 5 0.0 0.0 0.00 0.00 0.00 68 1011.8
20260905233742 87 5 0.0 0.0 0.00 0.00 0.00 64 1011.9
20260905233242 87 5 0.0 0.0 0.00 0.00 0.00 65 1011.8
20260905232741 87 4 0.0 0.0 0.00 0.00 0.00 64 1012.2
20260905232237 87 4 0.0 0.0 0.00 0.00 0.00 61 1012.1
20260905231733 88 4 0.0 0.0 0.00 0.00 0.00 66 1012.1
20260905231228 88 5 0.0 0.0 0.00 0.00 0.00 63 1012.0
20260905230724 89 5 0.0 0.0 0.00 0.00 0.00 61 1011.9
20260905230222 89 5 0.0 0.0 0.00 0.00 0.00 59 1012.0
20260905225721 90 5 0.0 0.0 0.00 0.00 0.00 60 1012.0
20260905225217 90 5 0.0 0.0 0.00 0.00 0.00 58 1011.7
20260905224716 90 5 1.0 1.0 0.00 0.00 0.00 55 1012.0
20260905224211 91 6 2.0 2.0 0.00 0.00 0.00 54 1011.8
20260905223708 92 21 2.0 2.0 0.00 0.00 0.00 54 1011.8
20260905223204 92 53 2.0 4.0 0.00 0.00 0.00 53 1012.1
20260905222700 92 3 1.0 2.0 0.00 0.00 0.00 55 1011.9
20260905222159 92 16 2.0 2.0 0.00 0.00 0.00 53 1012.0
20260905221654 92 26 1.0 2.0 0.00 0.00 0.00 52 1012.0
20260905221151 92 8 3.0 3.0 0.00 0.00 0.00 51 1012.0
20260905220647 93 349 2.0 2.0 0.00 0.00 0.00 52 1012.0
20260905220143 93 328 4.0 3.0 0.00 0.00 0.00 49 1012.0
20260905215642 93 53 2.0 3.0 0.00 0.00 0.00 49 1011.7
20260905215138 94 24 3.0 4.0 0.00 0.00 0.00 49 1011.9
20260905214634 94 61 3.0 3.0 0.00 0.00 0.00 48 1011.7
20260905214129 94 300 3.0 3.0 0.00 0.00 0.00 50 1011.7
20260905213624 94 328 4.0 6.0 0.00 0.00 0.00 47 1011.6
20260905213119 94 1 2.0 4.0 0.00 0.00 0.00 49 1011.8
20260905212615 94 19 2.0 3.0 0.00 0.00 0.00 48 1011.7
20260905212114 94 335 6.0 8.0 0.00 0.00 0.00 46 1011.8
20260905211609 94 289 1.0 3.0 0.00 0.00 0.00 49 1012.1
20260905211105 94 337 4.0 6.0 0.00 0.00 0.00 47 1011.6
20260905210601 94 348 2.0 6.0 0.00 0.00 0.00 49 1011.7
20260905210055 95 339 6.0 7.0 0.00 0.00 0.00 45 1011.8
20260905205555 94 9 1.0 2.0 0.00 0.00 0.00 51 1011.7
20260905205054 94 289 5.0 7.0 0.00 0.00 0.00 47 1011.8
20260905204549 94 343 2.0 2.0 0.00 0.00 0.00 48 1011.6
20260905204044 94 74 5.0 6.0 0.00 0.00 0.00 46 1011.8
20260905203544 95 320 4.0 6.0 0.00 0.00 0.00 46 1011.8
20260905203039 95 238 2.0 3.0 0.00 0.00 0.00 45 1012.0
20260905202535 95 284 3.0 3.0 0.00 0.00 0.00 46 1012.1
20260905202030 95 15 4.0 4.0 0.00 0.00 0.00 46 1012.2
20260905201526 94 341 1.0 1.0 0.00 0.00 0.00 48 1012.2
20260905201025 94 334 2.0 4.0 0.00 0.00 0.00 48 1012.3
20260905200521 94 344 3.0 6.0 0.00 0.00 0.00 46 1012.3
20260905200021 94 230 2.0 6.0 0.00 0.00 0.00 47 1012.4
20260905195520 95 173 2.0 6.0 0.00 0.00 0.00 45 1012.6
20260905195016 95 241 3.0 3.0 0.00 0.00 0.00 45 1012.4
20260905194516 94 310 2.0 3.0 0.00 0.00 0.00 48 1012.5
20260905194015 94 269 1.0 4.0 0.00 0.00 0.00 48 1012.6
20260905193510 94 277 0.0 2.0 0.00 0.00 0.00 50 1012.8
20260905193005 93 249 2.0 3.0 0.00 0.00 0.00 47 1012.8
20260905192500 93 269 4.0 4.0 0.00 0.00 0.00 47 1012.8
20260905191956 94 324 2.0 4.0 0.00 0.00 0.00 48 1013.1
20260905191455 95 286 2.0 3.0 0.00 0.00 0.00 46 1013.1
20260905190954 94 122 1.0 1.0 0.00 0.00 0.00 46 1013.1
20260905190452 94 211 3.0 6.0 0.00 0.00 0.00 44 1013.1
20260905185951 93 202 1.0 2.0 0.00 0.00 0.00 48 1013.3
20260905185447 93 213 2.0 4.0 0.00 0.00 0.00 45 1013.3
20260905184945 92 256 4.0 4.0 0.00 0.00 0.00 49 1013.2
20260905184440 92 211 2.0 4.0 0.00 0.00 0.00 47 1013.4
20260905183938 92 249 2.0 4.0 0.00 0.00 0.00 47 1013.4
20260905183433 92 271 4.0 6.0 0.00 0.00 0.00 47 1013.6
20260905182929 92 271 4.0 6.0 0.00 0.00 0.00 47 1013.7
20260905182427 92 198 4.0 4.0 0.00 0.00 0.00 48 1013.5
20260905181923 92 237 3.0 6.0 0.00 0.00 0.00 46 1013.3
20260905181418 91 201 4.0 6.0 0.00 0.00 0.00 50 1013.6
20260905180917 91 137 3.0 7.0 0.00 0.00 0.00 49 1014.0
20260905180412 91 192 5.0 7.0 0.00 0.00 0.00 48 1013.8
20260905175912 91 166 1.0 4.0 0.00 0.00 0.00 51 1013.9
20260905175412 91 217 2.0 8.0 0.00 0.00 0.00 50 1014.0
20260905174907 91 225 0.0 3.0 0.00 0.00 0.00 49 1013.9
20260905174403 91 182 4.0 8.0 0.00 0.00 0.00 50 1013.9
20260905173858 90 199 4.0 7.0 0.00 0.00 0.00 49 1014.0
20260905173354 90 195 4.0 4.0 0.00 0.00 0.00 47 1014.1
20260905172849 90 219 3.0 4.0 0.00 0.00 0.00 46 1013.9
20260905172347 90 165 3.0 7.0 0.00 0.00 0.00 45 1014.2
20260905171843 90 179 4.0 6.0 0.00 0.00 0.00 49 1014.4
20260905171340 89 200 5.0 7.0 0.00 0.00 0.00 48 1014.4
20260905170836 89 170 2.0 3.0 0.00 0.00 0.00 54 1014.3
20260905170332 89 248 2.0 3.0 0.00 0.00 0.00 52 1014.5
20260905165831 89 284 2.0 3.0 0.00 0.00 0.00 50 1014.6
20260905165327 88 182 4.0 3.0 0.00 0.00 0.00 52 1014.5
20260905164826 88 204 3.0 3.0 0.00 0.00 0.00 51 1014.7
20260905164321 87 154 6.0 8.0 0.00 0.00 0.00 52 1014.6
20260905163817 87 215 2.0 2.0 0.00 0.00 0.00 54 1014.5
20260905163313 87 205 5.0 6.0 0.00 0.00 0.00 55 1014.5
20260905162809 87 140 6.0 8.0 0.00 0.00 0.00 58 1014.5
20260905162309 87 186 3.0 6.0 0.00 0.00 0.00 55 1014.6
20260905161803 87 224 1.0 6.0 0.00 0.00 0.00 55 1014.7
20260905161302 86 178 4.0 7.0 0.00 0.00 0.00 58 1014.5
20260905160801 86 188 6.0 7.0 0.00 0.00 0.00 58 1014.7
20260905160301 85 180 7.0 8.0 0.00 0.00 0.00 58 1014.7
20260905155756 85 193 4.0 6.0 0.00 0.00 0.00 59 1014.9
20260905155254 85 211 3.0 6.0 0.00 0.00 0.00 61 1015.0
20260905154749 85 199 6.0 8.0 0.00 0.00 0.00 63 1015.0
20260905154245 84 157 4.0 4.0 0.00 0.00 0.00 62 1015.2
20260905153740 84 160 2.0 4.0 0.00 0.00 0.00 61 1015.2
20260905153236 84 203 6.0 7.0 0.00 0.00 0.00 59 1015.3
20260905152731 84 137 2.0 3.0 0.00 0.00 0.00 63 1015.1
20260905152230 83 137 3.0 4.0 0.00 0.00 0.00 64 1015.4
20260905151730 84 190 4.0 6.0 0.00 0.00 0.00 61 1015.1
20260905151227 83 166 2.0 6.0 0.00 0.00 0.00 65 1015.3
20260905150726 83 180 7.0 9.0 0.00 0.00 0.00 66 1015.5
20260905150226 82 176 4.0 6.0 0.00 0.00 0.00 66 1015.2
20260905145723 82 148 2.0 6.0 0.00 0.00 0.00 64 1015.3
20260905145218 82 150 3.0 7.0 0.00 0.00 0.00 64 1015.5
20260905144717 82 187 6.0 9.0 0.00 0.00 0.00 63 1015.7
20260905144212 82 116 4.0 4.0 0.00 0.00 0.00 67 1015.3
20260905143711 80 152 2.0 3.0 0.00 0.00 0.00 70 1015.3
20260905143206 80 138 1.0 2.0 0.00 0.00 0.00 71 1015.3
20260905142704 80 68 2.0 3.0 0.00 0.00 0.00 70 1015.8
20260905142205 81 79 4.0 6.0 0.00 0.00 0.00 67 1015.7
20260905141700 82 80 2.0 6.0 0.00 0.00 0.00 68 1015.6
20260905141156 80 159 2.0 3.0 0.00 0.00 0.00 69 1015.7
20260905140651 79 228 3.0 4.0 0.00 0.00 0.00 71 1015.5
20260905140151 79 156 3.0 4.0 0.00 0.00 0.00 75 1015.8
20260905135646 78 131 3.0 7.0 0.00 0.00 0.00 75 1015.8
20260905135141 77 183 4.0 6.0 0.00 0.00 0.00 76 1015.6
20260905134636 76 116 3.0 7.0 0.00 0.00 0.00 78 1015.7
20260905134134 75 119 4.0 13.0 0.00 0.00 0.00 81 1015.8
20260905133630 75 68 5.0 8.0 0.00 0.00 0.00 82 1015.7
20260905133130 74 66 5.0 7.0 0.00 0.00 0.00 83 1015.9
20260905132630 74 358 5.0 9.0 0.00 0.00 0.00 84 1015.8
20260905132125 74 71 6.0 16.0 0.00 0.00 0.00 83 1015.9
20260905131620 74 86 7.0 11.0 0.00 0.00 0.00 84 1015.9
20260905131115 73 76 11.0 18.0 0.00 0.00 0.00 83 1016.1
20260905130615 73 65 11.0 14.0 0.00 0.00 0.00 83 1016.2
20260905130114 73 68 5.0 15.0 0.00 0.00 0.00 83 1016.1
20260905125609 74 48 9.0 13.0 0.00 0.00 0.00 82 1016.0
20260905125104 74 65 4.0 9.0 0.00 0.00 0.00 80 1016.0
20260905124601 74 50 9.0 15.0 0.00 0.00 0.00 79 1015.9
20260905124057 75 43 9.0 13.0 0.00 0.00 0.00 79 1016.1
20260905123552 75 33 6.0 6.0 0.00 0.00 0.00 80 1015.8
20260905123049 75 66 4.0 6.0 0.00 0.00 0.00 79 1015.2
20260905122548 74 34 1.0 3.0 0.00 0.00 0.00 80 1015.2
20260905122043 74 51 2.0 4.0 0.00 0.00 0.00 81 1015.2
20260905121544 74 49 4.0 4.0 0.00 0.00 0.00 81 1015.1
20260905121039 74 101 4.0 4.0 0.00 0.00 0.00 83 1015.0
20260905120538 74 46 3.0 4.0 0.00 0.00 0.00 83 1015.4
20260905120033 74 54 4.0 10.0 0.00 0.00 0.00 83 1015.2
20260905115532 74 43 6.0 7.0 0.00 0.00 0.00 84 1015.5
20260905115027 74 59 4.0 6.0 0.00 0.00 0.00 85 1015.6
20260905114526 74 32 2.0 2.0 0.00 0.00 0.00 83 1015.2
20260905114026 74 35 2.0 3.0 0.00 0.00 0.00 83 1015.0
20260905113521 75 45 3.0 4.0 0.00 0.00 0.00 83 1015.4
20260905113016 75 42 4.0 9.0 0.00 0.00 0.00 82 1014.8
20260905112511 75 76 3.0 6.0 0.00 0.00 0.00 83 1014.8
20260905112007 76 56 6.0 10.0 0.00 0.00 0.00 82 1014.7
20260905111501 76 64 6.0 10.0 0.00 0.00 0.00 84 1014.9
20260905110955 75 66 7.0 9.0 0.00 0.00 0.00 91 1014.6
20260905110455 75 41 3.0 3.0 0.00 0.00 0.00 93 1014.7
20260905105955 75 275 0.0 1.0 0.00 0.00 0.00 93 1014.2
20260905105455 75 217 0.0 1.0 0.00 0.00 0.00 93 1013.8
20260905104955 75 216 0.0 0.0 0.00 0.00 0.00 93 1014.2
20260905104451 75 216 1.0 1.0 0.00 0.00 0.00 93 1013.7
20260905103951 75 216 2.0 3.0 0.00 0.00 0.00 92 1013.8
20260905103446 74 348 1.0 1.0 0.00 0.00 0.00 95 1013.8
20260905102942 74 343 0.0 1.0 0.00 0.00 0.00 96 1013.9
20260905102438 73 348 2.0 2.0 0.00 0.00 0.00 96 1014.0
20260905101933 73 333 1.0 2.0 0.00 0.00 0.00 95 1013.9
20260905101431 74 273 0.0 1.0 0.00 0.00 0.00 95 1013.7
20260905100926 74 270 1.0 1.0 0.00 0.00 0.00 95 1013.5
20260905100422 74 272 2.0 1.0 0.00 0.00 0.00 95 1013.9
20260905095921 74 262 1.0 1.0 0.00 0.00 0.00 95 1013.7
20260905095421 74 255 0.0 1.0 0.00 0.00 0.00 96 1013.5
20260905094921 74 255 0.0 0.0 0.00 0.00 0.00 96 1013.7
20260905094417 74 255 0.0 0.0 0.00 0.00 0.00 96 1013.6
20260905093916 73 255 0.0 0.0 0.00 0.00 0.00 96 1013.5
20260905093412 73 255 0.0 0.0 0.00 0.00 0.00 95 1013.3
20260905092907 73 255 0.0 0.0 0.00 0.00 0.00 95 1013.7
20260905092402 74 255 1.0 1.0 0.00 0.00 0.00 95 1013.4
20260905091857 74 254 0.0 0.0 0.00 0.00 0.00 95 1013.3
20260905091356 74 254 0.0 0.0 0.00 0.00 0.00 95 1013.1
20260905090855 74 254 0.0 0.0 0.00 0.00 0.00 95 1013.4
20260905090351 73 254 0.0 0.0 0.00 0.00 0.00 95 1013.2
20260905085850 74 254 0.0 0.0 0.00 0.00 0.00 94 1013.4
20260905085345 74 254 0.0 0.0 0.00 0.00 0.00 94 1013.3
20260905084841 74 254 0.0 0.0 0.00 0.00 0.00 93 1013.3
20260905084340 75 254 0.0 0.0 0.00 0.00 0.00 93 1013.2
20260905083835 75 254 0.0 0.0 0.00 0.00 0.00 93 1013.2
20260905083331 75 223 0.0 0.0 0.00 0.00 0.00 93 1013.4
20260905082826 75 224 1.0 2.0 0.00 0.00 0.00 93 1013.5
20260905082323 75 218 1.0 1.0 0.00 0.00 0.00 93 1013.3
20260905081822 75 217 0.0 1.0 0.00 0.00 0.00 92 1013.2
20260905081318 75 221 1.0 1.0 0.00 0.00 0.00 93 1013.3
20260905080817 75 220 1.0 1.0 0.00 0.00 0.00 93 1013.2
20260905080312 75 226 1.0 1.0 0.00 0.00 0.00 93 1013.3
20260905075810 75 227 1.0 1.0 0.00 0.00 0.00 93 1013.3
20260905075310 75 228 0.0 0.0 0.00 0.00 0.00 93 1013.3
20260905074809 75 228 0.0 0.0 0.00 0.00 0.00 92 1013.5
20260905074306 75 228 0.0 1.0 0.00 0.00 0.00 92 1013.4
20260905073801 75 236 1.0 2.0 0.00 0.00 0.00 93 1013.4
20260905073256 75 217 2.0 3.0 0.00 0.00 0.00 93 1013.5
20260905072755 75 217 1.0 2.0 0.00 0.00 0.00 93 1013.7
20260905072251 75 218 2.0 2.0 0.00 0.00 0.00 94 1013.6
20260905071748 75 214 2.0 2.0 0.00 0.00 0.00 94 1013.9
20260905071243 75 219 2.0 2.0 0.00 0.00 0.00 94 1013.7
20260905070738 74 265 2.0 1.0 0.00 0.00 0.00 95 1013.8
20260905070234 74 266 0.0 0.0 0.00 0.00 0.00 95 1013.8
20260905065733 74 266 0.0 0.0 0.00 0.00 0.00 95 1013.9
20260905065227 74 266 0.0 0.0 0.00 0.00 0.00 94 1013.7
20260905064722 74 266 0.0 0.0 0.00 0.00 0.00 94 1013.9
20260905064218 75 266 0.0 0.0 0.00 0.00 0.00 93 1013.9
20260905063716 75 267 0.0 1.0 0.00 0.00 0.00 92 1014.0
20260905063213 75 253 1.0 1.0 0.00 0.00 0.00 93 1014.1
20260905062708 75 218 2.0 3.0 0.00 0.00 0.00 94 1014.1
20260905062208 75 220 1.0 1.0 0.00 0.00 0.00 93 1014.2
20260905061707 75 220 0.0 1.0 0.00 0.00 0.00 93 1014.3
20260905061202 75 221 0.0 1.0 0.00 0.00 0.00 93 1014.4
20260905060657 75 219 0.0 1.0 0.00 0.00 0.00 93 1014.2
20260905060154 75 219 0.0 0.0 0.00 0.00 0.00 93 1014.4
20260905055652 75 219 0.0 0.0 0.00 0.00 0.00 92 1014.4
20260905055148 75 219 1.0 2.0 0.00 0.00 0.00 93 1014.4
20260905054643 76 216 2.0 2.0 0.00 0.00 0.00 93 1014.4
20260905054139 76 218 2.0 2.0 0.00 0.00 0.00 93 1014.5
20260905053638 76 213 2.0 2.0 0.00 0.00 0.00 91 1014.4
20260905053133 76 264 1.0 1.0 0.00 0.00 0.00 92 1014.6
20260905052633 76 281 1.0 2.0 0.00 0.00 0.00 92 1014.6
20260905052128 76 87 0.0 0.0 0.00 0.00 0.00 92 1014.6
20260905051623 76 87 0.0 1.0 0.00 0.00 0.00 92 1014.7
20260905051120 76 86 1.0 0.0 0.00 0.00 0.00 92 1014.7
20260905050616 76 86 1.0 1.0 0.00 0.00 0.00 91 1014.9
20260905050112 76 85 0.0 1.0 0.00 0.00 0.00 91 1014.7
20260905045612 75 77 1.0 1.0 0.00 0.00 0.00 93 1014.7
20260905045108 75 78 0.0 0.0 0.00 0.00 0.00 93 1014.8
20260905044607 76 78 1.0 2.0 0.00 0.00 0.00 92 1014.7
20260905044102 77 86 1.0 2.0 0.00 0.00 0.00 91 1015.0
20260905043601 77 210 0.0 2.0 0.00 0.00 0.00 90 1014.5
20260905043057 78 224 2.0 2.0 0.00 0.00 0.00 89 1014.6
20260905042555 78 237 3.0 3.0 0.00 0.00 0.00 87 1014.4
20260905042051 77 71 2.0 1.0 0.00 0.00 0.00 89 1014.6
20260905041546 76 70 0.0 0.0 0.00 0.00 0.00 91 1014.8
20260905041041 76 70 0.0 1.0 0.00 0.00 0.00 92 1014.9
20260905040541 76 71 2.0 2.0 0.00 0.00 0.00 93 1014.8
20260905040039 76 72 2.0 2.0 0.00 0.00 0.00 94 1014.8
20260905035535 76 76 2.0 2.0 0.00 0.00 0.00 94 1014.7
20260905035032 76 226 1.0 1.0 0.00 0.00 0.00 94 1014.7
20260905034527 76 226 0.0 0.0 0.00 0.00 0.00 94 1014.6
20260905034027 77 226 0.0 0.0 0.00 0.00 0.00 94 1014.6
20260905033526 77 226 0.0 0.0 0.00 0.00 0.00 94 1014.7
20260905033023 77 226 0.0 0.0 0.00 0.00 0.00 94 1014.8
20260905032518 77 226 0.0 0.0 0.00 0.00 0.00 94 1014.8
20260905032013 77 226 0.0 0.0 0.00 0.00 0.00 94 1014.7
20260905031509 77 226 0.0 0.0 0.00 0.00 0.00 94 1014.7
20260905031008 77 226 0.0 0.0 0.00 0.00 0.00 93 1014.8
20260905030504 77 226 0.0 0.0 0.00 0.00 0.00 93 1014.8
20260905030003 77 226 0.0 0.0 0.00 0.00 0.00 93 1014.8
20260905025458 78 226 0.0 0.0 0.00 0.00 0.00 93 1014.8
20260905024955 78 226 0.0 0.0 0.00 0.00 0.00 93 1014.6
20260905024454 78 226 0.0 0.0 0.00 0.00 0.00 91 1014.7
20260905023950 78 226 0.0 0.0 0.00 0.00 0.00 91 1014.7
20260905023445 78 226 0.0 0.0 0.00 0.00 0.00 91 1014.7
20260905022944 78 226 0.0 0.0 0.00 0.00 0.00 89 1014.5